| time (UTC) | temp F | wind direction | speed MPH | gust MPH | rain 1hr in | rain 24hr in | rain mn in | humidity % | barometer mb |
| 20260904183602 | 83 | 0.0 | 0.0 | 0.00 | 0.00 | 0.00 | 25 | 1024.7 | |
| 20260904174602 | 86 | 0.0 | 0.0 | 0.00 | 0.00 | 0.00 | 23 | 1024.3 | |
| 20260904174101 | 87 | 0.0 | 0.0 | 0.00 | 0.00 | 0.00 | 22 | 1024.3 | |
| 20260904173102 | 88 | 0.0 | 0.0 | 0.00 | 0.00 | 0.00 | 20 | 1024.1 | |
| 20260904171101 | 89 | 0.0 | 0.0 | 0.00 | 0.00 | 0.00 | 18 | 1024.1 | |
| 20260904165601 | 93 | 0.0 | 0.0 | 0.00 | 0.00 | 0.00 | 16 | 1023.9 | |
| 20260904162601 | 93 | 0.0 | 0.0 | 0.00 | 0.00 | 0.00 | 16 | 1024.0 | |
| 20260904161102 | 92 | 0.0 | 0.0 | 0.00 | 0.00 | 0.00 | 15 | 1024.0 | |
| 20260904151102 | 91 | 0.0 | 0.0 | 0.00 | 0.00 | 0.00 | 16 | 1023.6 | |
| 20260904145101 | 91 | 0.0 | 0.0 | 0.00 | 0.00 | 0.00 | 17 | 1023.8 | |
| 20260904144103 | 91 | 0.0 | 0.0 | 0.00 | 0.00 | 0.00 | 17 | 1023.6 | |
| 20260904134603 | 89 | 0.0 | 0.0 | 0.00 | 0.00 | 0.00 | 20 | 1023.1 | |
| 20260904132102 | 89 | 0.0 | 0.0 | 0.00 | 0.00 | 0.00 | 22 | 1023.2 | |
| 20260904121602 | 86 | 0.0 | 0.0 | 0.00 | 0.00 | 0.00 | 29 | 1023.5 | |
| 20260904120601 | 85 | 0.0 | 0.0 | 0.00 | 0.00 | 0.00 | 30 | 1023.6 | |
| 20260904113102 | 83 | 0.0 | 0.0 | 0.00 | 0.00 | 0.00 | 33 | 1023.9 | |
| 20260904111602 | 83 | 0.0 | 0.0 | 0.00 | 0.00 | 0.00 | 35 | 1024.1 | |
| 20260904110603 | 82 | 0.0 | 0.0 | 0.00 | 0.00 | 0.00 | 35 | 1024.1 | |
| 20260904105102 | 81 | 0.0 | 0.0 | 0.00 | 0.00 | 0.00 | 38 | 1024.3 | |
| 20260904102603 | 79 | 0.0 | 0.0 | 0.00 | 0.00 | 0.00 | 39 | 1024.7 | |
| 20260904101102 | 78 | 0.0 | 0.0 | 0.00 | 0.00 | 0.00 | 39 | 1024.9 | |
| 20260904080602 | 72 | 0.0 | 0.0 | 0.00 | 0.00 | 0.00 | 50 | 1025.4 | |
| 20260904074102 | 70 | 0.0 | 0.0 | 0.00 | 0.00 | 0.00 | 48 | 1025.7 | |
| 20260904073102 | 69 | 0.0 | 0.0 | 0.00 | 0.00 | 0.00 | 49 | 1025.8 | |
| 20260904060601 | 68 | 0.0 | 0.0 | 0.00 | 0.00 | 0.00 | 52 | 1026.2 | |
| 20260904052602 | 68 | 0.0 | 0.0 | 0.00 | 0.00 | 0.00 | 50 | 1026.2 | |
| 20260904051603 | 69 | 0.0 | 0.0 | 0.00 | 0.00 | 0.00 | 50 | 1026.0 | |
| 20260904045102 | 68 | 0.0 | 0.0 | 0.00 | 0.00 | 0.00 | 50 | 1026.1 | |
| 20260904041602 | 69 | 0.0 | 0.0 | 0.00 | 0.00 | 0.00 | 49 | 1026.3 | |
| 20260904032102 | 70 | 0.0 | 0.0 | 0.00 | 0.00 | 0.00 | 46 | 1026.4 | |
| 20260904030602 | 70 | 0.0 | 0.0 | 0.00 | 0.00 | 0.00 | 46 | 1026.5 | |
| 20260904022601 | 71 | 0.0 | 0.0 | 0.00 | 0.00 | 0.00 | 44 | 1026.5 | |
| 20260904013602 | 71 | 0.0 | 0.0 | 0.00 | 0.00 | 0.00 | 45 | 1026.8 | |
| 20260904013102 | 71 | 0.0 | 0.0 | 0.00 | 0.00 | 0.00 | 45 | 1026.9 | |
| 20260904002102 | 72 | 0.0 | 0.0 | 0.00 | 0.00 | 0.00 | 43 | 1027.4 | |
| 20260904001102 | 72 | 0.0 | 0.0 | 0.00 | 0.00 | 0.00 | 42 | 1027.5 | |
| 20260904000602 | 73 | 0.0 | 0.0 | 0.00 | 0.00 | 0.00 | 42 | 1027.4 | |
| 20260903232102 | 73 | 0.0 | 0.0 | 0.00 | 0.00 | 0.00 | 40 | 1027.5 | |
| 20260903231102 | 73 | 0.0 | 0.0 | 0.00 | 0.00 | 0.00 | 40 | 1027.4 | |
| 20260903225602 | 74 | 0.0 | 0.0 | 0.00 | 0.00 | 0.00 | 39 | 1027.3 | |
| 20260903224602 | 74 | 0.0 | 0.0 | 0.00 | 0.00 | 0.00 | 39 | 1027.2 | |
| 20260903222602 | 75 | 0.0 | 0.0 | 0.00 | 0.00 | 0.00 | 38 | 1027.2 | |
| 20260903222103 | 75 | 0.0 | 0.0 | 0.00 | 0.00 | 0.00 | 38 | 1027.1 | |
| 20260903212602 | 76 | 0.0 | 0.0 | 0.00 | 0.00 | 0.00 | 36 | 1027.1 | |
| 20260903210602 | 77 | 0.0 | 0.0 | 0.00 | 0.00 | 0.00 | 37 | 1026.9 | |
| 20260903205102 | 77 | 0.0 | 0.0 | 0.00 | 0.00 | 0.00 | 35 | 1026.8 | |
| 20260903203101 | 78 | 0.0 | 0.0 | 0.00 | 0.00 | 0.00 | 36 | 1026.8 | |
| 20260903202602 | 78 | 0.0 | 0.0 | 0.00 | 0.00 | 0.00 | 36 | 1026.7 | |
| 20260903201103 | 79 | 0.0 | 0.0 | 0.00 | 0.00 | 0.00 | 36 | 1026.6 | |
| 20260903200602 | 79 | 0.0 | 0.0 | 0.00 | 0.00 | 0.00 | 36 | 1026.5 |